Weather observations for the past three days for
Redwood Falls Municipal Airport
Metric (Imperial)
Date Time (cdt) Wind (kph) Vis. (km) Weather Sky Cond. Temperature (ºC) Relative Humidity Wind Chill (°C) Heat Index (°C) Pressure Precipitation (cm)
Air Dwpt 6 hour altimeter (cm) sea level (mb) 1 hr 3 hr 6 hr
Max. Min.
13 06:53 E 13 16.09 Thunderstorm in Vicinity Light Rain SCT060 BKN085 OVC110 20 17.8 22.8 20 87% 76.25 1016.0
13 05:53 E 6 4.83 Fog/Mist CLR 21.7 21.1 96% 76.2 1015.1
13 04:53 SE 15 8.05 Fog/Mist CLR 21.7 20.6 94% 76.07 1013.6
13 03:53 SE 11 8.05 Fog/Mist CLR 21.7 20.6 94% 76.12 1014.3
13 02:53 SE 13 9.66 Fog/Mist CLR 22.2 20.6 91% 76.15 1014.4
13 01:53 S 15 11.27 Fair CLR 22.8 20.6 87% 76.15 1014.7
13 00:53 SE 11 11.27 Fair CLR 22.2 20.6 28.9 22.2 91% 76.2 1015.2
12 23:53 SE 11 12.87 Fair CLR 23.3 20.6 85% 76.2 1015.3
12 22:53 SE 15 14.48 Fair CLR 23.9 20.6 82% 24 76.17 1014.8
12 21:53 SE 13 14.48 Fair CLR 24.4 20 77% 25 76.17 1014.8
12 20:53 SE 17 14.48 Fair CLR 26.1 20 69% 27 76.15 1014.4
12 19:53 SE 15 14.48 Fair CLR 27.8 19.4 60% 29 76.15 1014.7
12 18:53 SE 20 16.09 Fair CLR 28.9 18.9 29.4 27.8 55% 30 76.15 1014.5
12 17:53 SE 24 16.09 Fair CLR 29.4 17.8 50% 30 76.15 1014.5
12 16:53 SE 20 G 39 16.09 Fair CLR 29.4 17.8 50% 30 76.15 1014.8
12 15:53 S 19 16.09 Fair CLR 29.4 17.8 50% 30 76.2 1015.3
12 14:53 SE 26 G 41 16.09 Partly Cloudy SCT044 28.9 18.3 53% 30 76.2 1015.4
12 13:53 SE 26 16.09 A Few Clouds FEW041 28.3 18.3 55% 29 76.23 1015.6
12 12:53 SE 28 G 43 16.09 Fair CLR 28.3 18.3 28.3 18.3 55% 29 76.25 1016.2
12 11:53 S 20 G 35 16.09 A Few Clouds FEW034 26.1 18.3 62% 27 76.3 1016.6
12 10:53 S 24 16.09 A Few Clouds FEW026 26.1 18.9 65% 27 76.33 1017.0
12 09:53 SE 26 16.09 Fair CLR 25 18.9 69% 26 76.35 1017.3
12 08:53 SE 19 14.48 Fair CLR 23.3 18.3 74% 76.38 1017.7
12 07:53 SE 13 11.27 Fair CLR 20.6 17.8 84% 76.35 1017.4
12 06:53 SE 9 8.05 Fog/Mist CLR 17.8 16.7 20.6 17.2 93% 76.3 1016.9
12 05:53 SE 11 11.27 Fair CLR 17.8 16.1 90% 76.28 1016.4
12 04:53 S 9 14.48 Fair CLR 17.8 16.7 93% 76.25 1016.0
12 03:53 S 9 14.48 Fair CLR 18.9 16.7 87% 76.25 1016.0
12 02:53 S 11 14.48 Fair CLR 19.4 17.2 87% 76.25 1016.1
12 01:53 S 13 16.09 Fair CLR 20 17.2 84% 76.3 1016.5
12 00:53 S 11 14.48 Fair CLR 20.6 17.8 27.8 20.6 84% 76.3 1016.8
11 23:53 S 9 14.48 Fair CLR 21.1 17.8 82% 76.3 1016.7
11 22:53 SE 11 16.09 Fair CLR 22.2 17.8 76% 76.28 1016.4
11 21:53 SE 11 16.09 Fair CLR 22.8 18.3 76% 76.28 1016.4
11 20:53 SE 7 16.09 Fair CLR 24.4 18.9 72% 25 76.28 1016.2
11 19:53 SE 9 16.09 Fair CLR 26.7 17.8 58% 28 76.25 1016.2
11 18:53 SE 13 16.09 Fair CLR 27.8 17.2 28.9 26.7 53% 28 76.28 1016.3
11 17:53 SE 19 16.09 A Few Clouds FEW050 28.3 17.2 51% 29 76.3 1016.8
11 16:53 S 19 16.09 A Few Clouds FEW055 28.3 16.7 49% 29 76.3 1016.9
11 15:53 S 13 16.09 Fair CLR 28.3 16.1 48% 29 76.35 1017.3
11 14:53 S 15 16.09 Fair CLR 28.3 16.1 48% 29 76.38 1017.7
11 13:53 S 9 16.09 Fair CLR 27.8 15 46% 28 76.4 1018.1
11 12:53 SE 7 16.09 Fair CLR 26.7 16.7 27.2 16.7 54% 27 76.43 1018.4
11 11:53 SE 7 16.09 Fair CLR 26.1 16.7 56% 27 76.43 1018.4
11 10:53 Calm 16.09 Fair CLR 25 17.2 62% 26 76.4 1018.3
11 09:53 Calm 16.09 Fair CLR 23.3 17.2 69% 76.43 1018.5
11 08:53 Calm 16.09 Fair CLR 21.7 17.8 79% 76.43 1018.6
11 07:53 Calm 11.27 Fair CLR 18.9 17.2 90% 76.43 1018.5
11 06:53 Calm 6.44 Fog/Mist CLR 16.7 16.1 17.8 15.6 96% 76.43 1018.7
11 05:53 Calm 9.66 Fog/Mist CLR 16.1 15.6 97% 76.4 1018.3
11 04:53 Calm 11.27 Fair CLR 16.1 15.6 97% 76.35 1017.8
11 03:53 Calm 14.48 Fair CLR 16.1 16.1 100% 76.35 1017.6
11 02:53 Calm 2.82 Fog/Mist FEW002 17.8 16.7 93% 76.33 1017.3
11 01:53 Calm 6.44 Fog/Mist CLR 17.8 17.2 96% 76.35 1017.5
11 00:53 Calm 9.66 Fog/Mist CLR 18.3 17.8 23.9 18.3 97% 76.35 1017.5
10 23:53 Calm 9.66 Fog/Mist CLR 18.9 18.3 96% 76.33 1017.2
10 22:53 Calm 12.87 Fair CLR 19.4 18.3 93% 76.3 1016.8
10 21:53 Calm 14.48 Fair CLR 20 18.9 93% 76.28 1016.4
10 20:53 Calm 14.48 Fair CLR 22.2 18.9 82% 76.25 1016.1
10 19:53 Calm 16.09 Fair CLR 23.9 18.9 74% 25 76.25 1016.0
10 18:53 Calm 16.09 Partly Cloudy SCT110 23.3 18.3 27.2 17.8 74% 76.25 1015.9 1.42
10 17:53 NW 6 16.09 Fair CLR 22.8 18.9 79% 76.25 1016.1
10 16:53 N 11 16.09 Fair CLR 21.7 18.3 81% 76.25 1016.2
10 15:53 W 6 16.09 Partly Cloudy SCT110 19.4 17.2 87% 76.25 1016.4 1.42
10 14:53 W 6 16.09 Mostly Cloudy FEW029 FEW049 BKN110 18.9 16.7 87% 76.23 1016.1 1.42
10 13:53 W 20 G 37 12.87 Thunderstorm in Vicinity OVC034 22.8 17.2 71% 76.17 1015.2
10 12:53 Calm 12.87 A Few Clouds FEW036 26.7 17.2 27.2 18.9 56% 27 76.17 1015.0
10 11:53 N 6 14.48 Mostly Cloudy BKN100 25.6 16.7 58% 26 76.2 1015.2
10 10:53 Vrbl 7 12.87 Fair CLR 25 18.3 66% 26 76.17 1015.0
10 09:53 Vrbl 6 12.87 Fair CLR 22.8 17.8 74% 76.15 1014.6
10 08:53 W 15 12.87 Partly Cloudy SCT060 21.1 17.2 79% 76.15 1014.7
10 07:53 SW 15 9.66 A Few Clouds with Haze FEW037 FEW095 18.9 16.1 84% 76.12 1014.5
Date Time (cdt) Wind (kph) Vis. (km) Weather Sky Cond. Air Dwpt Max. Min. Relative Humidity Wind Chill (°C) Heat Index (°C) altimeter (cm) sea level (mb) 1 hr 3 hr 6 hr
6 hour
Temperature (ºC) Pressure Precipitation (cm)